TimeEDT,TemperatureF,Dew PointF,Humidity,Sea Level PressureIn,VisibilityMPH,Wind Direction,Wind SpeedMPH,Gust SpeedMPH,PrecipitationIn,Events,Conditions,WindDirDegrees,DateUTC
12:53 AM,73.0,69.1,87,30.01,10.0,SSW,6.9,-,N/A,,Scattered Clouds,210,2013-11-01 04:53:00
1:53 AM,73.0,66.9,81,29.98,10.0,SSW,11.5,-,N/A,,Clear,210,2013-11-01 05:53:00
2:53 AM,73.0,66.9,81,29.96,10.0,SSW,6.9,-,N/A,,Clear,200,2013-11-01 06:53:00
3:53 AM,72.0,66.9,84,29.94,10.0,South,4.6,-,N/A,,Clear,180,2013-11-01 07:53:00
4:53 AM,72.0,68.0,87,29.93,10.0,Variable,5.8,-,N/A,,Clear,0,2013-11-01 08:53:00
5:53 AM,72.0,66.9,84,29.92,10.0,South,5.8,-,N/A,,Clear,190,2013-11-01 09:53:00
6:53 AM,71.1,66.9,87,29.92,10.0,SSW,5.8,-,N/A,,Clear,200,2013-11-01 10:53:00
7:53 AM,72.0,66.0,81,29.92,10.0,SSW,9.2,18.4,N/A,,Clear,200,2013-11-01 11:53:00
8:53 AM,73.0,68.0,84,29.94,10.0,SSW,11.5,17.3,N/A,,Clear,210,2013-11-01 12:53:00
9:53 AM,75.0,66.9,76,29.94,10.0,SW,10.4,-,N/A,,Clear,220,2013-11-01 13:53:00
10:53 AM,77.0,66.9,71,29.93,10.0,SW,11.5,-,N/A,,Mostly Cloudy,220,2013-11-01 14:53:00
11:53 AM,77.0,68.0,74,29.93,10.0,WSW,9.2,-,N/A,,Overcast,240,2013-11-01 15:53:00
12:53 PM,78.1,68.0,71,29.90,10.0,SSW,8.1,-,N/A,,Overcast,210,2013-11-01 16:53:00
1:53 PM,80.1,68.0,67,29.86,10.0,SW,12.7,-,N/A,,Overcast,220,2013-11-01 17:53:00
2:53 PM,79.0,68.0,69,29.84,10.0,SSW,15.0,23.0,N/A,,Overcast,210,2013-11-01 18:53:00
3:53 PM,80.1,66.9,64,29.83,10.0,SSW,15.0,25.3,N/A,,Overcast,210,2013-11-01 19:53:00
4:53 PM,78.1,66.9,68,29.82,10.0,SSW,11.5,18.4,N/A,,Clear,210,2013-11-01 20:53:00
5:53 PM,78.1,68.0,71,29.81,10.0,SSW,8.1,-,N/A,,Clear,210,2013-11-01 21:53:00
6:53 PM,77.0,66.9,71,29.80,10.0,SSW,10.4,-,N/A,,Clear,200,2013-11-01 22:53:00
7:53 PM,77.0,66.9,71,29.82,10.0,SSW,5.8,-,N/A,,Clear,200,2013-11-01 23:53:00
8:53 PM,75.9,66.9,74,29.82,10.0,South,6.9,-,N/A,,Partly Cloudy,180,2013-11-02 00:53:00
9:53 PM,77.0,68.0,74,29.81,10.0,South,8.1,16.1,N/A,,Scattered Clouds,190,2013-11-02 01:53:00
10:23 PM,77.0,69.8,78,29.81,10.0,SSW,9.2,-,N/A,,Mostly Cloudy,200,2013-11-02 02:23:00
10:38 PM,75.2,69.8,83,29.81,10.0,SSW,10.4,18.4,N/A,,Scattered Clouds,210,2013-11-02 02:38:00
10:53 PM,75.9,69.1,79,29.81,10.0,SSW,11.5,-,N/A,,Partly Cloudy,210,2013-11-02 02:53:00
11:53 PM,75.0,71.1,87,29.80,10.0,SSW,10.4,18.4,0.00,,Clear,200,2013-11-02 03:53:00